Weather History for KHFD - July, 2013

Change the Weather History Date:

Sunday, July 21, 2013

  Actual Average Record
Temperature  
Mean Temperature 79 °F -  
Max Temperature 87 °F 84 °F 101 °F (1991)
Min Temperature 71 °F 64 °F 46 °F (1966)
Cooling Degree Days 14    
Growing Degree Days 29 (Base 50)    
Moisture  
Dew Point 64 °F    
Average Humidity 63    
Maximum Humidity 81    
Minimum Humidity 40    
Precipitation  
Precipitation 0.01 in - - ()
Sea Level Pressure  
Sea Level Pressure 29.92 in    
Wind  
Wind Speed 3 mph (SE)    
Max Wind Speed 8 mph    
Max Gust Speed -    
Visibility 10 miles    
Events Rain    
Averages and records for this station are not official NWS values.
T = Trace of Precipitation, MM = Missing Value Source: NWS Daily Summary

Daily Weather History Graph

Daily Weather History Graph

Search for Another Location

Airport or City:

Trip Planner

Search our weather history database for the weather conditions in past years. The results will help you decide how hot, cold, wet, or windy it might be!

Date:

Astronomy

Jul. 21, 2013 Rise Set
Actual Time 5:34 AM EDT 8:19 PM EDT
Civil Twilight 5:01 AM EDT 8:51 PM EDT
Nautical Twilight 4:21 AM EDT 9:32 PM EDT
Astronomical Twilight 3:34 AM EDT 10:18 PM EDT
Moon 7:14 PM EDT (7/21) 4:17 AM EDT (7/21)
Length of Visible Light 15h 49m
Length of Day
14h 44m
Waxing Gibbous, 98% of the Moon is Illuminated
Jul 21
Waxing Gibbous
Jul 22
Full
Jul 29
Last Quarter
Aug 6
New
Aug 14
First Quarter

Hourly Weather History & Observations

Time (EDT) Temp. Heat Index Dew Point Humidity Pressure Visibility Wind Dir Wind Speed Gust Speed Precip Events Conditions
12:53 AM 73.9 °F - 63.0 °F 68% 29.85 in 10.0 mi Calm Calm - N/A   Mostly Cloudy
1:53 AM 75.0 °F - 60.1 °F 60% 29.86 in 10.0 mi North 8.1 mph - N/A   Overcast
2:53 AM 75.0 °F - 59.0 °F 57% 29.86 in 10.0 mi North 5.8 mph - 0.00 in Rain Light Rain
3:53 AM 73.0 °F - 61.0 °F 66% 29.86 in 10.0 mi Calm Calm - 0.00 in   Mostly Cloudy
4:53 AM 73.0 °F - 62.1 °F 68% 29.87 in 10.0 mi Calm Calm - N/A   Overcast
5:53 AM 71.1 °F - 64.9 °F 81% 29.89 in 10.0 mi Calm Calm - 0.01 in   Overcast
6:53 AM 72.0 °F - 66.0 °F 81% 29.91 in 10.0 mi Calm Calm - N/A   Overcast
7:53 AM 72.0 °F - 66.0 °F 81% 29.93 in 10.0 mi Calm Calm - N/A   Mostly Cloudy
8:53 AM 77.0 °F - 63.0 °F 62% 29.94 in 10.0 mi NNE 6.9 mph - N/A   Scattered Clouds
9:53 AM 79.0 °F - 63.0 °F 58% 29.93 in 10.0 mi Calm Calm - N/A   Partly Cloudy
10:53 AM 79.0 °F - 63.0 °F 58% 29.94 in 10.0 mi NNE 4.6 mph - N/A   Mostly Cloudy
11:53 AM 82.0 °F 83.0 °F 62.1 °F 51% 29.94 in 10.0 mi SE 4.6 mph - N/A   Mostly Cloudy
12:53 PM 84.0 °F 84.4 °F 61.0 °F 46% 29.94 in 10.0 mi Calm Calm - N/A   Clear
1:53 PM 84.9 °F 85.4 °F 62.1 °F 46% 29.94 in 10.0 mi North 5.8 mph - N/A   Clear
2:53 PM 87.1 °F 86.7 °F 60.1 °F 40% 29.93 in 10.0 mi Variable 4.6 mph - N/A   Clear
3:53 PM 84.0 °F 85.4 °F 64.0 °F 51% 29.92 in 10.0 mi ESE 4.6 mph - N/A   Mostly Cloudy
4:53 PM 84.0 °F 85.8 °F 64.9 °F 53% 29.92 in 10.0 mi SSE 5.8 mph - N/A   Mostly Cloudy
5:53 PM 82.0 °F 84.1 °F 66.0 °F 58% 29.91 in 10.0 mi SE 4.6 mph - N/A   Partly Cloudy
6:53 PM 81.0 °F 83.3 °F 66.9 °F 62% 29.92 in 10.0 mi South 5.8 mph - N/A   Clear
7:53 PM 79.0 °F - 66.9 °F 66% 29.93 in 10.0 mi South 6.9 mph - N/A   Clear
8:53 PM 77.0 °F - 66.9 °F 71% 29.94 in 10.0 mi South 5.8 mph - N/A   Clear
9:53 PM 75.9 °F - 66.9 °F 74% 29.97 in 10.0 mi Calm Calm - N/A   Clear
10:53 PM 73.9 °F - 66.0 °F 76% 29.97 in 10.0 mi South 3.5 mph - N/A   Clear
11:53 PM 73.0 °F - 66.0 °F 79% 29.98 in 10.0 mi South 4.6 mph - N/A   Clear